| time (UTC) | temp F | wind direction | speed MPH | gust MPH | rain 1hr in | rain 24hr in | rain mn in | humidity % | barometer mb |
| 20260507153119 | 59 | 294 | 15.0 | 19.0 | 0.00 | 0.00 | 0.00 | 61 | 1013.1 |
| 20260507152618 | 59 | 278 | 17.0 | 20.0 | 0.00 | 0.00 | 0.00 | 60 | 1013.2 |
| 20260507152118 | 59 | 279 | 19.0 | 21.0 | 0.00 | 0.00 | 0.00 | 61 | 1013.2 |
| 20260507151617 | 59 | 296 | 11.0 | 16.0 | 0.00 | 0.00 | 0.00 | 61 | 1013.3 |
| 20260507151117 | 60 | 273 | 16.0 | 20.0 | 0.00 | 0.00 | 0.00 | 62 | 1013.4 |
| 20260507150616 | 60 | 280 | 15.0 | 20.0 | 0.00 | 0.00 | 0.00 | 60 | 1013.2 |
| 20260507150115 | 61 | 277 | 17.0 | 20.0 | 0.00 | 0.00 | 0.00 | 60 | 1013.2 |
| 20260507145615 | 61 | 273 | 18.0 | 22.0 | 0.00 | 0.00 | 0.00 | 59 | 1013.1 |
| 20260507145114 | 60 | 282 | 18.0 | 24.0 | 0.00 | 0.00 | 0.00 | 59 | 1013.0 |
| 20260507144614 | 61 | 289 | 16.0 | 22.0 | 0.00 | 0.00 | 0.00 | 59 | 1012.6 |
| 20260507144113 | 61 | 277 | 15.0 | 21.0 | 0.00 | 0.00 | 0.00 | 59 | 1013.0 |
| 20260507143613 | 62 | 279 | 18.0 | 21.0 | 0.00 | 0.00 | 0.00 | 55 | 1013.1 |
| 20260507143112 | 63 | 284 | 17.0 | 21.0 | 0.00 | 0.00 | 0.00 | 53 | 1012.9 |
| 20260507142611 | 65 | 293 | 14.0 | 20.0 | 0.00 | 0.00 | 0.00 | 50 | 1012.2 |
| 20260507142110 | 66 | 265 | 15.0 | 22.0 | 0.00 | 0.00 | 0.00 | 50 | 1012.8 |
| 20260507141610 | 66 | 289 | 8.0 | 12.0 | 0.00 | 0.00 | 0.00 | 53 | 1012.8 |
| 20260507141109 | 65 | 287 | 11.0 | 16.0 | 0.00 | 0.00 | 0.00 | 52 | 1012.9 |
| 20260507140608 | 65 | 280 | 17.0 | 21.0 | 0.00 | 0.00 | 0.00 | 51 | 1012.9 |
| 20260507140107 | 67 | 282 | 13.0 | 18.0 | 0.00 | 0.00 | 0.00 | 50 | 1012.6 |
| 20260507135606 | 66 | 280 | 12.0 | 15.0 | 0.00 | 0.00 | 0.00 | 51 | 1012.9 |
| 20260507135106 | 66 | 275 | 10.0 | 15.0 | 0.00 | 0.00 | 0.00 | 50 | 1012.8 |
| 20260507134605 | 66 | 273 | 12.0 | 15.0 | 0.00 | 0.00 | 0.00 | 50 | 1012.9 |
| 20260507134104 | 66 | 289 | 10.0 | 15.0 | 0.00 | 0.00 | 0.00 | 49 | 1012.9 |
| 20260507133603 | 66 | 280 | 10.0 | 19.0 | 0.00 | 0.00 | 0.00 | 52 | 1013.0 |
| 20260507133102 | 65 | 269 | 9.0 | 16.0 | 0.00 | 0.00 | 0.00 | 53 | 1013.1 |
| 20260507132602 | 64 | 267 | 9.0 | 12.0 | 0.00 | 0.00 | 0.00 | 54 | 1012.9 |
| 20260507132101 | 63 | 289 | 9.0 | 15.0 | 0.00 | 0.00 | 0.00 | 54 | 1013.0 |
| 20260507131600 | 63 | 286 | 12.0 | 18.0 | 0.00 | 0.00 | 0.00 | 54 | 1013.1 |
| 20260507131100 | 63 | 255 | 8.0 | 13.0 | 0.00 | 0.00 | 0.00 | 55 | 1013.1 |
| 20260507130559 | 63 | 270 | 8.0 | 12.0 | 0.00 | 0.00 | 0.00 | 55 | 1013.2 |
| 20260507130058 | 62 | 249 | 8.0 | 13.0 | 0.00 | 0.00 | 0.00 | 57 | 1013.2 |
| 20260507125558 | 62 | 279 | 11.0 | 14.0 | 0.00 | 0.00 | 0.00 | 55 | 1013.1 |
| 20260507125057 | 62 | 273 | 8.0 | 12.0 | 0.00 | 0.00 | 0.00 | 56 | 1012.8 |
| 20260507124556 | 62 | 286 | 11.0 | 13.0 | 0.00 | 0.00 | 0.00 | 55 | 1012.9 |
| 20260507124056 | 63 | 293 | 10.0 | 13.0 | 0.00 | 0.00 | 0.00 | 56 | 1012.9 |
| 20260507123555 | 63 | 268 | 13.0 | 17.0 | 0.00 | 0.00 | 0.00 | 54 | 1012.9 |
| 20260507123054 | 63 | 270 | 13.0 | 19.0 | 0.00 | 0.00 | 0.00 | 54 | 1012.8 |
| 20260507122553 | 64 | 282 | 10.0 | 14.0 | 0.00 | 0.00 | 0.00 | 53 | 1012.8 |
| 20260507122053 | 63 | 263 | 8.0 | 10.0 | 0.00 | 0.00 | 0.00 | 56 | 1013.1 |
| 20260507121552 | 62 | 277 | 8.0 | 12.0 | 0.00 | 0.00 | 0.00 | 58 | 1013.1 |
| 20260507121052 | 61 | 277 | 10.0 | 13.0 | 0.00 | 0.00 | 0.00 | 57 | 1013.0 |
| 20260507120551 | 61 | 262 | 10.0 | 14.0 | 0.00 | 0.00 | 0.00 | 59 | 1012.9 |
| 20260507120050 | 60 | 261 | 9.0 | 12.0 | 0.00 | 0.00 | 0.00 | 58 | 1013.0 |
| 20260507115550 | 60 | 267 | 8.0 | 11.0 | 0.00 | 0.00 | 0.00 | 60 | 1013.1 |
| 20260507115049 | 60 | 241 | 9.0 | 13.0 | 0.00 | 0.00 | 0.00 | 61 | 1013.1 |
| 20260507114549 | 59 | 240 | 9.0 | 14.0 | 0.00 | 0.00 | 0.00 | 61 | 1013.0 |
| 20260507114048 | 58 | 260 | 10.0 | 15.0 | 0.00 | 0.00 | 0.00 | 60 | 1013.1 |
| 20260507113548 | 60 | 272 | 7.0 | 13.0 | 0.00 | 0.00 | 0.00 | 60 | 1013.1 |
| 20260507113047 | 59 | 277 | 8.0 | 14.0 | 0.00 | 0.00 | 0.00 | 62 | 1013.1 |
| 20260507112547 | 59 | 240 | 10.0 | 12.0 | 0.00 | 0.00 | 0.00 | 61 | 1013.0 |
| 20260507112046 | 59 | 251 | 10.0 | 14.0 | 0.00 | 0.00 | 0.00 | 60 | 1013.1 |
| 20260507111545 | 60 | 270 | 11.0 | 17.0 | 0.00 | 0.00 | 0.00 | 59 | 1012.8 |
| 20260507111045 | 60 | 275 | 11.0 | 14.0 | 0.00 | 0.00 | 0.00 | 58 | 1012.9 |
| 20260507110544 | 61 | 258 | 9.0 | 17.0 | 0.00 | 0.00 | 0.00 | 57 | 1012.9 |
| 20260507110044 | 61 | 272 | 8.0 | 14.0 | 0.00 | 0.00 | 0.00 | 58 | 1012.9 |
| 20260507105543 | 60 | 256 | 7.0 | 11.0 | 0.00 | 0.00 | 0.00 | 59 | 1012.8 |
| 20260507105042 | 60 | 250 | 6.0 | 10.0 | 0.00 | 0.00 | 0.00 | 62 | 1012.8 |
| 20260507104542 | 60 | 246 | 6.0 | 12.0 | 0.00 | 0.00 | 0.00 | 62 | 1012.7 |
| 20260507104041 | 61 | 275 | 9.0 | 15.0 | 0.00 | 0.00 | 0.00 | 58 | 1012.6 |
| 20260507103541 | 61 | 279 | 14.0 | 19.0 | 0.00 | 0.00 | 0.00 | 55 | 1012.6 |
| 20260507103040 | 64 | 270 | 12.0 | 21.0 | 0.00 | 0.00 | 0.00 | 57 | 1012.5 |
| 20260507102539 | 62 | 263 | 10.0 | 16.0 | 0.00 | 0.00 | 0.00 | 59 | 1012.7 |
| 20260507102039 | 60 | 258 | 12.0 | 16.0 | 0.00 | 0.00 | 0.00 | 58 | 1012.7 |
| 20260507101538 | 59 | 268 | 14.0 | 20.0 | 0.00 | 0.00 | 0.00 | 59 | 1012.6 |
| 20260507101037 | 62 | 270 | 12.0 | 19.0 | 0.00 | 0.00 | 0.00 | 60 | 1012.5 |
| 20260507100537 | 62 | 280 | 14.0 | 19.0 | 0.00 | 0.00 | 0.00 | 60 | 1012.5 |
| 20260507100036 | 61 | 282 | 14.0 | 17.0 | 0.00 | 0.00 | 0.00 | 61 | 1012.3 |
| 20260507095536 | 60 | 277 | 11.0 | 17.0 | 0.00 | 0.00 | 0.00 | 61 | 1012.3 |
| 20260507095035 | 58 | 265 | 10.0 | 14.0 | 0.00 | 0.00 | 0.00 | 64 | 1012.6 |
| 20260507094535 | 58 | 267 | 12.0 | 17.0 | 0.00 | 0.00 | 0.00 | 67 | 1012.4 |
| 20260507094034 | 58 | 263 | 12.0 | 18.0 | 0.00 | 0.00 | 0.00 | 64 | 1012.3 |
| 20260507093534 | 58 | 270 | 12.0 | 18.0 | 0.00 | 0.00 | 0.00 | 63 | 1012.2 |
| 20260507093033 | 58 | 270 | 13.0 | 19.0 | 0.00 | 0.00 | 0.00 | 67 | 1012.3 |
| 20260507092533 | 58 | 273 | 15.0 | 20.0 | 0.00 | 0.00 | 0.00 | 64 | 1011.9 |
| 20260507092032 | 59 | 270 | 11.0 | 15.0 | 0.00 | 0.00 | 0.00 | 66 | 1012.1 |
| 20260507091532 | 59 | 293 | 12.0 | 17.0 | 0.00 | 0.00 | 0.00 | 65 | 1012.0 |
| 20260507091031 | 60 | 270 | 14.0 | 17.0 | 0.00 | 0.00 | 0.00 | 65 | 1012.0 |
| 20260507090531 | 59 | 267 | 8.0 | 10.0 | 0.00 | 0.00 | 0.00 | 69 | 1012.0 |
| 20260507090030 | 58 | 268 | 10.0 | 14.0 | 0.00 | 0.00 | 0.00 | 67 | 1012.0 |
| 20260507085530 | 57 | 261 | 10.0 | 14.0 | 0.00 | 0.00 | 0.00 | 69 | 1012.1 |
| 20260507085029 | 57 | 263 | 9.0 | 17.0 | 0.00 | 0.00 | 0.00 | 70 | 1011.9 |
| 20260507084529 | 57 | 256 | 10.0 | 16.0 | 0.00 | 0.00 | 0.00 | 72 | 1011.9 |
| 20260507084029 | 58 | 273 | 12.0 | 17.0 | 0.00 | 0.00 | 0.00 | 69 | 1011.9 |
| 20260507083528 | 58 | 273 | 9.0 | 13.0 | 0.00 | 0.00 | 0.00 | 68 | 1011.7 |
| 20260507083028 | 59 | 282 | 9.0 | 14.0 | 0.00 | 0.00 | 0.00 | 70 | 1011.9 |
| 20260507082527 | 60 | 282 | 9.0 | 11.0 | 0.00 | 0.00 | 0.00 | 69 | 1012.0 |
| 20260507082026 | 59 | 275 | 13.0 | 15.0 | 0.00 | 0.00 | 0.00 | 68 | 1011.9 |
| 20260507081526 | 59 | 278 | 12.0 | 17.0 | 0.00 | 0.00 | 0.00 | 70 | 1011.7 |
| 20260507081025 | 57 | 275 | 12.0 | 15.0 | 0.00 | 0.00 | 0.00 | 71 | 1011.6 |
| 20260507080525 | 56 | 279 | 12.0 | 18.0 | 0.00 | 0.00 | 0.00 | 77 | 1011.7 |
| 20260507080025 | 57 | 284 | 14.0 | 20.0 | 0.00 | 0.00 | 0.00 | 74 | 1011.5 |
| 20260507075524 | 57 | 277 | 13.0 | 17.0 | 0.00 | 0.00 | 0.00 | 73 | 1011.6 |
| 20260507075024 | 57 | 277 | 12.0 | 17.0 | 0.00 | 0.00 | 0.00 | 80 | 1011.6 |
| 20260507074523 | 56 | 278 | 14.0 | 20.0 | 0.00 | 0.00 | 0.00 | 78 | 1011.5 |
| 20260507074023 | 55 | 275 | 10.0 | 14.0 | 0.00 | 0.00 | 0.00 | 89 | 1011.5 |
| 20260507073523 | 55 | 273 | 13.0 | 17.0 | 0.00 | 0.00 | 0.00 | 87 | 1011.5 |
| 20260507073022 | 55 | 298 | 11.0 | 16.0 | 0.00 | 0.00 | 0.00 | 89 | 1011.4 |
| 20260507072522 | 55 | 268 | 10.0 | 15.0 | 0.00 | 0.00 | 0.00 | 94 | 1011.4 |
| 20260507072021 | 55 | 272 | 8.0 | 12.0 | 0.00 | 0.00 | 0.00 | 95 | 1011.4 |
| 20260507071521 | 55 | 273 | 11.0 | 14.0 | 0.00 | 0.00 | 0.00 | 95 | 1011.3 |
| 20260507071021 | 55 | 275 | 10.0 | 13.0 | 0.00 | 0.00 | 0.00 | 96 | 1011.3 |
| 20260507070520 | 55 | 272 | 9.0 | 12.0 | 0.00 | 0.00 | 0.00 | 95 | 1011.2 |
| 20260507070020 | 55 | 272 | 6.0 | 12.0 | 0.00 | 0.00 | 0.00 | 96 | 1011.1 |
| 20260507065520 | 55 | 246 | 4.0 | 6.0 | 0.00 | 0.00 | 0.00 | 96 | 1011.1 |
| 20260507065019 | 55 | 244 | 4.0 | 8.0 | 0.00 | 0.00 | 0.00 | 96 | 1011.2 |
| 20260507064519 | 55 | 256 | 7.0 | 10.0 | 0.00 | 0.00 | 0.00 | 96 | 1011.1 |
| 20260507064019 | 54 | 258 | 8.0 | 11.0 | 0.00 | 0.00 | 0.00 | 96 | 1011.2 |
| 20260507063518 | 54 | 246 | 6.0 | 11.0 | 0.00 | 0.00 | 0.00 | 96 | 1011.2 |
| 20260507063018 | 54 | 242 | 5.0 | 8.0 | 0.00 | 0.00 | 0.00 | 96 | 1011.1 |
| 20260507062518 | 54 | 258 | 7.0 | 11.0 | 0.00 | 0.00 | 0.00 | 96 | 1011.1 |
| 20260507062017 | 54 | 266 | 7.0 | 10.0 | 0.00 | 0.00 | 0.00 | 96 | 1010.9 |
| 20260507061517 | 54 | 251 | 9.0 | 14.0 | 0.00 | 0.00 | 0.00 | 96 | 1010.9 |
| 20260507061017 | 54 | 218 | 6.0 | 12.0 | 0.00 | 0.00 | 0.00 | 96 | 1010.9 |
| 20260507060516 | 54 | 237 | 9.0 | 12.0 | 0.00 | 0.00 | 0.00 | 96 | 1010.7 |
| 20260507060016 | 54 | 240 | 7.0 | 12.0 | 0.00 | 0.00 | 0.00 | 96 | 1010.6 |
| 20260507055515 | 54 | 249 | 7.0 | 9.0 | 0.00 | 0.00 | 0.00 | 96 | 1010.6 |
| 20260507055015 | 54 | 232 | 7.0 | 13.0 | 0.00 | 0.00 | 0.00 | 96 | 1010.5 |
| 20260507054515 | 54 | 235 | 7.0 | 11.0 | 0.00 | 0.00 | 0.00 | 96 | 1010.5 |
| 20260507054014 | 54 | 223 | 5.0 | 9.0 | 0.00 | 0.00 | 0.00 | 96 | 1010.3 |
| 20260507053514 | 54 | 204 | 5.0 | 8.0 | 0.00 | 0.00 | 0.00 | 97 | 1010.4 |
| 20260507053013 | 54 | 206 | 4.0 | 9.0 | 0.00 | 0.00 | 0.00 | 97 | 1010.5 |
| 20260507052513 | 53 | 192 | 3.0 | 7.0 | 0.00 | 0.00 | 0.00 | 97 | 1010.4 |
| 20260507052013 | 53 | 204 | 5.0 | 10.0 | 0.00 | 0.00 | 0.00 | 98 | 1010.4 |
| 20260507051512 | 53 | 183 | 4.0 | 6.0 | 0.00 | 0.00 | 0.00 | 98 | 1010.3 |
| 20260507051012 | 52 | 187 | 3.0 | 4.0 | 0.00 | 0.00 | 0.00 | 98 | 1010.3 |
| 20260507050512 | 51 | 208 | 3.0 | 6.0 | 0.00 | 0.00 | 0.00 | 98 | 1010.3 |
| 20260507050012 | 51 | 229 | 4.0 | 6.0 | 0.00 | 0.00 | 0.00 | 98 | 1010.2 |
| 20260507045511 | 51 | 237 | 4.0 | 7.0 | 0.00 | 0.00 | 0.00 | 98 | 1010.2 |
| 20260507045011 | 51 | 227 | 5.0 | 7.0 | 0.00 | 0.00 | 0.00 | 98 | 1010.1 |
| 20260507044511 | 51 | 215 | 4.0 | 6.0 | 0.00 | 0.00 | 0.00 | 98 | 1010.0 |
| 20260507044011 | 51 | 261 | 5.0 | 8.0 | 0.00 | 0.00 | 0.00 | 98 | 1009.9 |
| 20260507043511 | 50 | 242 | 4.0 | 8.0 | 0.00 | 0.00 | 0.00 | 98 | 1009.8 |
| 20260507043010 | 50 | 242 | 4.0 | 6.0 | 0.00 | 0.00 | 0.00 | 98 | 1009.8 |
| 20260507042510 | 50 | 257 | 4.0 | 6.0 | 0.00 | 0.00 | 0.00 | 98 | 1009.8 |
| 20260507042010 | 50 | 248 | 3.0 | 5.0 | 0.00 | 0.00 | 0.00 | 98 | 1009.7 |
| 20260507041510 | 50 | 256 | 4.0 | 6.0 | 0.00 | 0.00 | 0.00 | 98 | 1009.7 |
| 20260507041010 | 50 | 241 | 4.0 | 6.0 | 0.00 | 0.00 | 0.00 | 98 | 1009.6 |
| 20260507040510 | 50 | 251 | 4.0 | 6.0 | 0.00 | 0.00 | 0.00 | 98 | 1009.6 |
| 20260507040010 | 49 | 244 | 4.0 | 6.0 | 0.00 | 0.00 | 0.00 | 98 | 1009.6 |
| 20260507035510 | 49 | 257 | 5.0 | 6.0 | 0.00 | 0.00 | 0.00 | 98 | 1009.5 |
| 20260507035010 | 49 | 287 | 5.0 | 7.0 | 0.00 | 0.00 | 0.00 | 98 | 1009.4 |
| 20260507034510 | 49 | 270 | 5.0 | 7.0 | 0.00 | 0.00 | 0.00 | 98 | 1009.2 |
| 20260507034010 | 49 | 282 | 9.0 | 11.0 | 0.00 | 0.00 | 0.00 | 98 | 1009.2 |
| 20260507033510 | 49 | 268 | 7.0 | 9.0 | 0.00 | 0.00 | 0.00 | 98 | 1009.1 |
| 20260507033009 | 49 | 265 | 9.0 | 13.0 | 0.00 | 0.00 | 0.00 | 98 | 1009.0 |
| 20260507032509 | 49 | 270 | 7.0 | 9.0 | 0.00 | 0.00 | 0.00 | 98 | 1009.2 |
| 20260507032009 | 49 | 263 | 5.0 | 9.0 | 0.00 | 0.00 | 0.00 | 98 | 1009.1 |
| 20260507031509 | 49 | 246 | 5.0 | 8.0 | 0.00 | 0.00 | 0.00 | 98 | 1009.2 |
| 20260507031009 | 49 | 251 | 6.0 | 10.0 | 0.00 | 0.00 | 0.00 | 98 | 1009.1 |
| 20260507030509 | 50 | 238 | 8.0 | 10.0 | 0.00 | 0.00 | 0.00 | 98 | 1009.1 |
| 20260507030009 | 50 | 253 | 7.0 | 9.0 | 0.00 | 0.00 | 0.00 | 98 | 1009.2 |
| 20260507025509 | 50 | 228 | 6.0 | 9.0 | 0.00 | 0.00 | 0.00 | 98 | 1009.2 |
| 20260507025009 | 50 | 232 | 6.0 | 8.0 | 0.00 | 0.00 | 0.00 | 98 | 1009.1 |
| 20260507024509 | 50 | 249 | 7.0 | 10.0 | 0.00 | 0.00 | 0.00 | 98 | 1009.1 |
| 20260507024009 | 50 | 251 | 7.0 | 9.0 | 0.00 | 0.00 | 0.00 | 98 | 1009.1 |
| 20260507023509 | 50 | 254 | 8.0 | 10.0 | 0.00 | 0.00 | 0.00 | 98 | 1009.1 |
| 20260507023009 | 50 | 261 | 10.0 | 13.0 | 0.00 | 0.00 | 0.00 | 98 | 1008.9 |
| 20260507022509 | 50 | 265 | 9.0 | 11.0 | 0.00 | 0.00 | 0.00 | 98 | 1008.9 |
| 20260507022009 | 50 | 267 | 8.0 | 10.0 | 0.00 | 0.00 | 0.00 | 98 | 1008.8 |
| 20260507021508 | 50 | 263 | 9.0 | 11.0 | 0.00 | 0.00 | 0.00 | 98 | 1008.8 |
| 20260507021008 | 50 | 267 | 9.0 | 11.0 | 0.00 | 0.00 | 0.00 | 98 | 1008.8 |
| 20260507020508 | 50 | 267 | 9.0 | 11.0 | 0.00 | 0.00 | 0.00 | 98 | 1008.8 |
| 20260507020008 | 50 | 277 | 8.0 | 11.0 | 0.00 | 0.00 | 0.00 | 98 | 1008.9 |
| 20260507015508 | 51 | 277 | 7.0 | 9.0 | 0.00 | 0.00 | 0.00 | 98 | 1008.9 |
| 20260507015008 | 51 | 270 | 9.0 | 10.0 | 0.00 | 0.00 | 0.00 | 98 | 1008.9 |
| 20260507014508 | 51 | 261 | 10.0 | 12.0 | 0.00 | 0.00 | 0.00 | 98 | 1008.9 |
| 20260507014007 | 51 | 263 | 10.0 | 12.0 | 0.00 | 0.00 | 0.00 | 98 | 1008.8 |
| 20260507013507 | 51 | 263 | 9.0 | 12.0 | 0.00 | 0.00 | 0.00 | 98 | 1008.8 |
| 20260507013007 | 52 | 255 | 10.0 | 12.0 | 0.00 | 0.00 | 0.00 | 98 | 1008.8 |
| 20260507012507 | 52 | 267 | 9.0 | 12.0 | 0.00 | 0.00 | 0.00 | 98 | 1008.7 |
| 20260507012007 | 52 | 260 | 10.0 | 13.0 | 0.00 | 0.00 | 0.00 | 98 | 1008.5 |
| 20260507011507 | 52 | 258 | 8.0 | 15.0 | 0.00 | 0.00 | 0.00 | 98 | 1008.5 |
| 20260507011006 | 51 | 261 | 8.0 | 11.0 | 0.00 | 0.00 | 0.00 | 98 | 1008.5 |
| 20260507010506 | 51 | 248 | 5.0 | 7.0 | 0.00 | 0.00 | 0.00 | 98 | 1008.5 |
| 20260507010006 | 52 | 252 | 5.0 | 7.0 | 0.00 | 0.00 | 0.00 | 98 | 1008.4 |
| 20260507005506 | 52 | 274 | 4.0 | 8.0 | 0.00 | 0.00 | 0.00 | 98 | 1008.4 |
| 20260507005006 | 52 | 251 | 3.0 | 4.0 | 0.00 | 0.00 | 0.00 | 98 | 1008.3 |
| 20260507004506 | 52 | 251 | 5.0 | 7.0 | 0.00 | 0.00 | 0.00 | 98 | 1008.3 |
| 20260507004006 | 52 | 242 | 4.0 | 6.0 | 0.00 | 0.00 | 0.00 | 98 | 1008.3 |
| 20260507003505 | 52 | 242 | 6.0 | 8.0 | 0.00 | 0.00 | 0.00 | 98 | 1008.3 |
| 20260507003005 | 52 | 222 | 4.0 | 7.0 | 0.00 | 0.00 | 0.00 | 98 | 1008.2 |
| 20260507002505 | 52 | 241 | 6.0 | 9.0 | 0.00 | 0.00 | 0.00 | 98 | 1008.2 |
| 20260507002005 | 53 | 256 | 9.0 | 10.0 | 0.00 | 0.00 | 0.00 | 98 | 1008.3 |
| 20260507001505 | 53 | 256 | 10.0 | 12.0 | 0.00 | 0.00 | 0.00 | 98 | 1008.2 |
| 20260507001004 | 53 | 253 | 9.0 | 10.0 | 0.00 | 0.00 | 0.00 | 98 | 1008.1 |
| 20260507000505 | 53 | 255 | 6.0 | 8.0 | 0.00 | 0.00 | 0.00 | 98 | 1008.0 |
| 20260507000004 | 53 | 261 | 4.0 | 6.0 | 0.00 | 0.00 | 0.00 | 98 | 1008.1 |
| 20260506235504 | 53 | 253 | 5.0 | 7.0 | 0.00 | 0.00 | 0.00 | 98 | 1008.0 |
| 20260506235004 | 53 | 270 | 4.0 | 5.0 | 0.00 | 0.00 | 0.00 | 98 | 1008.0 |
| 20260506234503 | 53 | 262 | 4.0 | 5.0 | 0.00 | 0.00 | 0.00 | 98 | 1007.9 |
| 20260506234003 | 53 | 239 | 3.0 | 5.0 | 0.00 | 0.00 | 0.00 | 98 | 1007.7 |
| 20260506233503 | 53 | 212 | 3.0 | 4.0 | 0.00 | 0.00 | 0.00 | 98 | 1007.7 |
| 20260506233003 | 53 | 232 | 4.0 | 4.0 | 0.00 | 0.00 | 0.00 | 98 | 1007.7 |
| 20260506232502 | 53 | 145 | 2.0 | 3.0 | 0.00 | 0.00 | 0.00 | 98 | 1007.7 |
| 20260506232002 | 53 | 147 | 1.0 | 2.0 | 0.00 | 0.00 | 0.00 | 98 | 1007.7 |
| 20260506231502 | 53 | 234 | 2.0 | 3.0 | 0.00 | 0.00 | 0.00 | 98 | 1007.9 |
| 20260506231002 | 53 | 185 | 1.0 | 2.0 | 0.00 | 0.00 | 0.00 | 98 | 1007.9 |
| 20260506230501 | 53 | 232 | 2.0 | 3.0 | 0.00 | 0.00 | 0.00 | 98 | 1007.9 |
| 20260506230001 | 53 | 270 | 3.0 | 3.0 | 0.00 | 0.00 | 0.00 | 97 | 1007.7 |
| 20260506225501 | 53 | 269 | 2.0 | 3.0 | 0.00 | 0.00 | 0.00 | 97 | 1007.7 |
| 20260506225001 | 53 | 171 | 1.0 | 3.0 | 0.00 | 0.00 | 0.00 | 97 | 1007.6 |
| 20260506224500 | 53 | 142 | 2.0 | 3.0 | 0.00 | 0.00 | 0.00 | 97 | 1007.5 |
| 20260506224000 | 54 | 231 | 3.0 | 6.0 | 0.00 | 0.00 | 0.00 | 97 | 1007.6 |
| 20260506223500 | 54 | 239 | 5.0 | 9.0 | 0.00 | 0.00 | 0.00 | 97 | 1007.7 |
| 20260506223000 | 54 | 243 | 6.0 | 11.0 | 0.00 | 0.00 | 0.00 | 97 | 1007.8 |
| 20260506222500 | 53 | 246 | 6.0 | 8.0 | 0.00 | 0.00 | 0.00 | 97 | 1007.7 |
| 20260506222459 | 53 | 246 | 6.0 | 8.0 | 0.00 | 0.00 | 0.00 | 97 | 1007.7 |
| 20260506221959 | 53 | 260 | 7.0 | 10.0 | 0.00 | 0.00 | 0.00 | 97 | 1007.8 |
| 20260506221459 | 53 | 263 | 7.0 | 10.0 | 0.00 | 0.00 | 0.00 | 97 | 1007.7 |
| 20260506220959 | 54 | 260 | 7.0 | 10.0 | 0.00 | 0.00 | 0.00 | 97 | 1007.6 |
| 20260506220458 | 54 | 270 | 6.0 | 8.0 | 0.00 | 0.00 | 0.00 | 97 | 1007.7 |
| 20260506215958 | 54 | 248 | 5.0 | 6.0 | 0.00 | 0.00 | 0.00 | 97 | 1007.6 |
| 20260506215458 | 54 | 215 | 2.0 | 3.0 | 0.00 | 0.00 | 0.00 | 97 | 1007.5 |
| 20260506214958 | 54 | 168 | 1.0 | 2.0 | 0.00 | 0.00 | 0.00 | 97 | 1007.5 |
| 20260506214457 | 54 | 275 | 1.0 | 2.0 | 0.00 | 0.00 | 0.00 | 97 | 1007.4 |
| 20260506213957 | 54 | 285 | 1.0 | 2.0 | 0.00 | 0.00 | 0.00 | 97 | 1007.4 |
| 20260506213457 | 54 | 188 | 1.0 | 2.0 | 0.00 | 0.00 | 0.00 | 97 | 1007.4 |
| 20260506212957 | 54 | 171 | 1.0 | 3.0 | 0.00 | 0.00 | 0.00 | 97 | 1007.3 |
| 20260506212456 | 54 | 151 | 1.0 | 5.0 | 0.00 | 0.00 | 0.00 | 97 | 1007.2 |
| 20260506211956 | 54 | 137 | 1.0 | 2.0 | 0.00 | 0.00 | 0.00 | 96 | 1007.1 |
| 20260506211456 | 54 | 159 | 2.0 | 5.0 | 0.00 | 0.00 | 0.00 | 96 | 1007.1 |
| 20260506210955 | 54 | 136 | 2.0 | 5.0 | 0.00 | 0.00 | 0.00 | 96 | 1007.1 |
| 20260506210455 | 54 | 135 | 2.0 | 5.0 | 0.00 | 0.00 | 0.00 | 96 | 1007.1 |
| 20260506205955 | 54 | 132 | 2.0 | 4.0 | 0.00 | 0.00 | 0.00 | 96 | 1007.1 |
| 20260506205455 | 54 | 138 | 3.0 | 4.0 | 0.00 | 0.00 | 0.00 | 95 | 1007.2 |
| 20260506204954 | 54 | 135 | 3.0 | 4.0 | 0.00 | 0.00 | 0.00 | 95 | 1007.3 |
| 20260506204454 | 54 | 135 | 3.0 | 4.0 | 0.00 | 0.00 | 0.00 | 94 | 1007.2 |
| 20260506203954 | 54 | 135 | 3.0 | 5.0 | 0.00 | 0.00 | 0.00 | 94 | 1007.3 |
| 20260506203453 | 54 | 144 | 3.0 | 4.0 | 0.00 | 0.00 | 0.00 | 94 | 1007.4 |
| 20260506202953 | 55 | 191 | 2.0 | 3.0 | 0.00 | 0.00 | 0.00 | 93 | 1007.6 |
| 20260506202453 | 55 | 255 | 7.0 | 11.0 | 0.00 | 0.00 | 0.00 | 93 | 1007.8 |
| 20260506201953 | 55 | 277 | 6.0 | 9.0 | 0.00 | 0.00 | 0.00 | 92 | 1007.7 |
| 20260506201452 | 55 | 284 | 7.0 | 9.0 | 0.00 | 0.00 | 0.00 | 91 | 1007.8 |
| 20260506200952 | 56 | 246 | 6.0 | 9.0 | 0.00 | 0.00 | 0.00 | 89 | 1007.7 |
| 20260506200451 | 56 | 270 | 9.0 | 15.0 | 0.00 | 0.00 | 0.00 | 87 | 1007.5 |
| 20260506195951 | 57 | 237 | 4.0 | 6.0 | 0.00 | 0.00 | 0.00 | 84 | 1007.2 |
| 20260506195451 | 57 | 233 | 2.0 | 4.0 | 0.00 | 0.00 | 0.00 | 85 | 1006.8 |
| 20260506194950 | 57 | 336 | 3.0 | 5.0 | 0.00 | 0.00 | 0.00 | 84 | 1006.6 |
| 20260506194450 | 57 | 59 | 2.0 | 5.0 | 0.00 | 0.00 | 0.00 | 83 | 1006.3 |
| 20260506193949 | 57 | 75 | 2.0 | 4.0 | 0.00 | 0.00 | 0.00 | 84 | 1006.0 |
| 20260506193456 | 57 | 19 | 2.0 | 3.0 | 0.00 | 0.00 | 0.00 | 84 | 1006.2 |
| 20260506193449 | 57 | 10 | 3.0 | 5.0 | 0.00 | 0.00 | 0.00 | 83 | 1006.1 |
| 20260506192949 | 57 | 19 | 2.0 | 3.0 | 0.00 | 0.00 | 0.00 | 84 | 1006.2 |
| 20260506192448 | 57 | 315 | 5.0 | 6.0 | 0.00 | 0.00 | 0.00 | 85 | 1006.3 |
| 20260506191948 | 57 | 318 | 3.0 | 5.0 | 0.00 | 0.00 | 0.00 | 84 | 1006.2 |
| 20260506191447 | 57 | 315 | 4.0 | 6.0 | 0.00 | 0.00 | 0.00 | 84 | 1006.2 |
| 20260506190947 | 57 | 107 | 2.0 | 5.0 | 0.00 | 0.00 | 0.00 | 84 | 1006.1 |
| 20260506190446 | 57 | 125 | 4.0 | 5.0 | 0.00 | 0.00 | 0.00 | 84 | 1005.9 |
| 20260506185946 | 57 | 111 | 3.0 | 5.0 | 0.00 | 0.00 | 0.00 | 84 | 1005.7 |
| 20260506185446 | 57 | 78 | 4.0 | 5.0 | 0.00 | 0.00 | 0.00 | 85 | 1005.6 |
| 20260506184945 | 57 | 31 | 2.0 | 4.0 | 0.00 | 0.00 | 0.00 | 86 | 1005.6 |
| 20260506184445 | 57 | 282 | 4.0 | 6.0 | 0.00 | 0.00 | 0.00 | 87 | 1005.7 |
| 20260506183944 | 57 | 270 | 6.0 | 7.0 | 0.00 | 0.00 | 0.00 | 88 | 1005.7 |
| 20260506183444 | 57 | 270 | 5.0 | 6.0 | 0.00 | 0.00 | 0.00 | 87 | 1005.7 |
| 20260506182944 | 57 | 251 | 5.0 | 6.0 | 0.00 | 0.00 | 0.00 | 85 | 1005.5 |
| 20260506182443 | 58 | 258 | 3.0 | 4.0 | 0.00 | 0.00 | 0.00 | 80 | 1005.3 |
| 20260506181943 | 58 | 218 | 1.0 | 3.0 | 0.00 | 0.00 | 0.00 | 78 | 1005.1 |
| 20260506181442 | 58 | 89 | 2.0 | 3.0 | 0.00 | 0.00 | 0.00 | 78 | 1005.1 |
| 20260506180942 | 58 | 132 | 1.0 | 2.0 | 0.00 | 0.00 | 0.00 | 77 | 1005.1 |
| 20260506180441 | 58 | 102 | 1.0 | 3.0 | 0.00 | 0.00 | 0.00 | 78 | 1005.0 |
| 20260506175941 | 59 | 92 | 2.0 | 3.0 | 0.00 | 0.00 | 0.00 | 78 | 1005.0 |
| 20260506175441 | 59 | 102 | 2.0 | 3.0 | 0.00 | 0.00 | 0.00 | 78 | 1004.9 |
| 20260506174940 | 59 | 83 | 2.0 | 4.0 | 0.00 | 0.00 | 0.00 | 78 | 1005.0 |
| 20260506174439 | 59 | 66 | 1.0 | 3.0 | 0.00 | 0.00 | 0.00 | 78 | 1004.9 |
| 20260506173939 | 59 | 346 | 1.0 | 3.0 | 0.00 | 0.00 | 0.00 | 79 | 1005.0 |
| 20260506173438 | 59 | 9 | 1.0 | 3.0 | 0.00 | 0.00 | 0.00 | 78 | 1005.1 |
| 20260506172938 | 60 | 357 | 2.0 | 3.0 | 0.00 | 0.00 | 0.00 | 77 | 1005.0 |
| 20260506172437 | 60 | 24 | 1.0 | 2.0 | 0.00 | 0.00 | 0.00 | 77 | 1005.0 |
| 20260506171937 | 61 | 26 | 2.0 | 3.0 | 0.00 | 0.00 | 0.00 | 76 | 1004.9 |
| 20260506171436 | 62 | 55 | 2.0 | 3.0 | 0.00 | 0.00 | 0.00 | 75 | 1004.9 |
| 20260506170935 | 63 | 66 | 1.0 | 3.0 | 0.00 | 0.00 | 0.00 | 74 | 1004.9 |
| 20260506170435 | 63 | 83 | 1.0 | 2.0 | 0.00 | 0.00 | 0.00 | 73 | 1004.9 |
| 20260506165934 | 61 | 34 | 1.0 | 2.0 | 0.00 | 0.00 | 0.00 | 74 | 1004.7 |
| 20260506165434 | 60 | 31 | 2.0 | 3.0 | 0.00 | 0.00 | 0.00 | 75 | 1004.7 |
| 20260506164933 | 59 | 64 | 3.0 | 3.0 | 0.00 | 0.00 | 0.00 | 77 | 1004.8 |
| 20260506164433 | 59 | 73 | 3.0 | 4.0 | 0.00 | 0.00 | 0.00 | 77 | 1004.8 |
| 20260506163932 | 59 | 38 | 2.0 | 3.0 | 0.00 | 0.00 | 0.00 | 77 | 1004.9 |
| 20260506163432 | 59 | 48 | 2.0 | 3.0 | 0.00 | 0.00 | 0.00 | 77 | 1004.9 |
| 20260506162931 | 60 | 45 | 3.0 | 3.0 | 0.00 | 0.00 | 0.00 | 76 | 1005.0 |
| 20260506162431 | 60 | 49 | 2.0 | 3.0 | 0.00 | 0.00 | 0.00 | 77 | 1005.0 |
| 20260506161930 | 60 | 105 | 2.0 | 3.0 | 0.00 | 0.00 | 0.00 | 78 | 1005.1 |
| 20260506161430 | 60 | 132 | 3.0 | 4.0 | 0.00 | 0.00 | 0.00 | 78 | 1005.2 |
| 20260506160929 | 60 | 137 | 3.0 | 4.0 | 0.00 | 0.00 | 0.00 | 79 | 1005.3 |
| 20260506160429 | 60 | 137 | 3.0 | 4.0 | 0.00 | 0.00 | 0.00 | 78 | 1005.3 |
| 20260506155928 | 61 | 132 | 2.0 | 3.0 | 0.00 | 0.00 | 0.00 | 78 | 1005.4 |
| 20260506155428 | 61 | 111 | 1.0 | 2.0 | 0.00 | 0.00 | 0.00 | 79 | 1005.4 |
| 20260506154927 | 61 | 64 | 1.0 | 2.0 | 0.00 | 0.00 | 0.00 | 79 | 1005.2 |
| 20260506154426 | 61 | 57 | 1.0 | 3.0 | 0.00 | 0.00 | 0.00 | 79 | 1005.3 |
| 20260506153926 | 60 | 3 | 2.0 | 4.0 | 0.00 | 0.00 | 0.00 | 79 | 1005.1 |
| 20260506153425 | 59 | 91 | 2.0 | 3.0 | 0.00 | 0.00 | 0.00 | 78 | 1005.4 |